Albemarle, NC

12:35 AM EDT on March 27, 2017 (GMT -0400)
Stanly County

Weather History for KVUJ - November, 2012

Change the Weather History Date:

Thursday, November 8, 2012

  Actual Average (KHBI) Record (KHBI)
Temperature  
Mean Temperature 46 °F -  
Max Temperature 63 °F 63 °F 80 °F (2005)
Min Temperature 28 °F 39 °F 22 °F (1967)
Degree Days  
Heating Degree Days 20    
Moisture  
Dew Point 28 °F    
Average Humidity 63    
Maximum Humidity 100    
Minimum Humidity 21    
Precipitation  
Precipitation 0.00 in - - ()
Sea Level Pressure  
Sea Level Pressure 30.09 in    
Wind  
Wind Speed 2 mph (NNW)    
Max Wind Speed 15 mph    
Max Gust Speed 22 mph    
Visibility 9 miles    
Events      
Averages and records for this station are not official NWS values.
T = Trace of Precipitation, MM = Missing Value Source: NWS Daily Summary

Daily Weather History Graph

Daily Weather History Graph

Search for Another Location

Airport or City:

Trip Planner

Search our weather history database for the weather conditions in past years. The results will help you decide how hot, cold, wet, or windy it might be!

Date:

Astronomy

Nov. 08, 2012 Rise Set
Actual Time 6:49 AM EST 5:18 PM EST
Civil Twilight 6:22 AM EST 5:45 PM EST
Nautical Twilight 5:52 AM EST 6:15 PM EST
Astronomical Twilight 5:22 AM EST 6:45 PM EST
Moon 12:55 AM EST (11/8) 1:48 PM EST (11/8)
Length of Visible Light 11h 22m
Length of Day
10h 29m
Waning Crescent, 33% of the Moon is Illuminated
Nov 8
Waning Crescent
Nov 13
New
Nov 20
First Quarter
Nov 28
Full
Dec 6
Last Quarter

Hourly Weather History & Observations

Time (EST) Temp. Windchill Dew Point Humidity Pressure Visibility Wind Dir Wind Speed Gust Speed Precip Events Conditions
12:15 AM 32.0 °F - 31.8 °F 99% 30.00 in 7.0 mi Calm Calm - N/A   Clear
12:35 AM 32.0 °F - 32.0 °F 100% 30.00 in 7.0 mi Calm Calm - N/A   Clear
12:55 AM 32.0 °F - 31.5 °F 98% 30.00 in 10.0 mi Calm Calm - N/A   Clear
1:15 AM 31.5 °F - 30.9 °F 98% 30.00 in 7.0 mi Calm Calm - N/A   Scattered Clouds
1:35 AM 31.6 °F - 31.1 °F 98% 30.00 in 7.0 mi Calm Calm - N/A   Mostly Cloudy
1:55 AM 32.0 °F - 32.0 °F 100% 30.00 in 10.0 mi Calm Calm - N/A   Overcast
2:15 AM 33.1 °F - 32.0 °F 96% 30.01 in 10.0 mi Calm Calm - N/A   Overcast
2:35 AM 32.9 °F - 32.2 °F 97% 30.01 in 7.0 mi Calm Calm - N/A   Overcast
2:55 AM 32.5 °F - 32.0 °F 98% 30.01 in 7.0 mi Calm Calm - N/A   Mostly Cloudy
3:15 AM 31.5 °F - 31.1 °F 99% 30.01 in 7.0 mi Calm Calm - N/A   Clear
3:35 AM 30.7 °F - 30.4 °F 99% 30.02 in 7.0 mi Calm Calm - N/A   Scattered Clouds
3:55 AM 31.5 °F - 31.1 °F 99% 30.02 in 7.0 mi Calm Calm - N/A   Scattered Clouds
4:15 AM 31.1 °F - 30.6 °F 98% 30.02 in 7.0 mi Calm Calm - N/A   Clear
4:35 AM 29.8 °F - 29.5 °F 99% 30.03 in 7.0 mi Calm Calm - N/A   Clear
4:55 AM 30.9 °F - 30.4 °F 98% 30.03 in 7.0 mi Calm Calm - N/A   Clear
5:15 AM 30.4 °F - 29.7 °F 97% 30.04 in 7.0 mi Calm Calm - N/A   Clear
5:35 AM 30.6 °F - 30.2 °F 99% 30.05 in 7.0 mi Calm Calm - N/A   Clear
5:55 AM 29.5 °F - 29.3 °F 99% 30.06 in 5.0 mi Calm Calm - N/A   Clear
6:15 AM 29.3 °F - 29.1 °F 99% 30.06 in 7.0 mi Calm Calm - N/A   Clear
6:35 AM 29.5 °F - 29.3 °F 99% 30.07 in 5.0 mi Calm Calm - N/A   Clear
6:55 AM 28.9 °F - 28.6 °F 99% 30.08 in 5.0 mi Calm Calm - N/A   Clear
7:15 AM 28.6 °F - 28.2 °F 99% 30.08 in 5.0 mi Calm Calm - N/A   Clear
7:35 AM 30.4 °F - 29.3 °F 96% 30.09 in 10.0 mi Calm Calm - N/A   Clear
7:55 AM 32.0 °F - 31.6 °F 99% 30.10 in 7.0 mi Calm Calm - N/A   Clear
8:15 AM 36.0 °F - 34.2 °F 93% 30.10 in 7.0 mi Calm Calm - N/A   Clear
8:35 AM 45.0 °F 43.5 °F 36.0 °F 71% 30.12 in 10.0 mi NW 3.5 mph - N/A   Clear
8:55 AM 47.5 °F - 35.2 °F 63% 30.12 in 10.0 mi North 4.6 mph - N/A   Clear
9:15 AM 49.1 °F - 32.7 °F 53% 30.12 in 10.0 mi North 4.6 mph - N/A   Clear
9:35 AM 51.1 °F - 31.8 °F 48% 30.12 in 10.0 mi NNW 5.8 mph - N/A   Clear
9:55 AM 52.9 °F - 30.4 °F 42% 30.12 in 10.0 mi NNW 11.5 mph 17.3 mph N/A   Clear
10:15 AM 53.6 °F - 27.3 °F 36% 30.12 in 10.0 mi North 8.1 mph 18.4 mph N/A   Clear
10:35 AM 54.9 °F - 25.5 °F 32% 30.12 in 10.0 mi NNW 11.5 mph 16.1 mph N/A   Clear
10:55 AM 55.2 °F - 25.5 °F 32% 30.12 in 10.0 mi North 11.5 mph 19.6 mph N/A   Clear
11:15 AM 56.7 °F - 24.6 °F 29% 30.12 in 10.0 mi North 11.5 mph 20.7 mph N/A   Clear
11:35 AM 57.2 °F - 25.5 °F 30% 30.10 in 10.0 mi NNW 11.5 mph 20.7 mph N/A   Clear
11:55 AM 57.6 °F - 24.8 °F 28% 30.10 in 10.0 mi NNW 12.7 mph 21.9 mph N/A   Clear
12:15 PM 58.6 °F - 25.3 °F 28% 30.09 in 10.0 mi North 15.0 mph 21.9 mph N/A   Clear
12:35 PM 59.7 °F - 23.4 °F 25% 30.08 in 10.0 mi NW 8.1 mph 19.6 mph N/A   Clear
12:55 PM 60.3 °F - 23.5 °F 24% 30.07 in 10.0 mi NNW 9.2 mph 17.3 mph N/A   Clear
1:15 PM 60.8 °F - 22.8 °F 23% 30.07 in 10.0 mi NW 8.1 mph 18.4 mph N/A   Clear
1:35 PM 61.5 °F - 23.0 °F 23% 30.07 in 10.0 mi North 8.1 mph 17.3 mph N/A   Clear
1:55 PM 61.9 °F - 22.1 °F 22% 30.07 in 10.0 mi NNW 11.5 mph 19.6 mph N/A   Clear
2:15 PM 61.9 °F - 21.6 °F 21% 30.07 in 10.0 mi NW 10.4 mph 16.1 mph N/A   Clear
2:35 PM 62.8 °F - 22.5 °F 21% 30.06 in 10.0 mi North 11.5 mph 16.1 mph N/A   Clear
2:55 PM 62.6 °F - 23.0 °F 22% 30.06 in 10.0 mi North 9.2 mph - N/A   Clear
3:15 PM 63.0 °F - 22.6 °F 21% 30.07 in 10.0 mi NW 6.9 mph - N/A   Clear
3:35 PM 62.2 °F - 21.2 °F 21% 30.07 in 10.0 mi NNW 4.6 mph - N/A   Clear
3:55 PM 61.7 °F - 21.2 °F 21% 30.07 in 10.0 mi NNW 6.9 mph - N/A   Clear
4:15 PM 61.3 °F - 21.2 °F 21% 30.08 in 10.0 mi NNW 5.8 mph - N/A   Clear
4:35 PM 60.4 °F - 21.2 °F 22% 30.08 in 10.0 mi NNW 5.8 mph - N/A   Clear
4:55 PM 58.8 °F - 21.4 °F 24% 30.09 in 10.0 mi North 4.6 mph - N/A   Clear
5:15 PM 57.0 °F - 21.7 °F 26% 30.09 in 10.0 mi Calm Calm - N/A   Clear
5:35 PM 55.0 °F - 23.0 °F 29% 30.10 in 10.0 mi Calm Calm - N/A   Clear
5:55 PM 53.8 °F - 22.6 °F 30% 30.10 in 10.0 mi Calm Calm - N/A   Clear
6:15 PM 48.7 °F - 26.2 °F 42% 30.12 in 10.0 mi Calm Calm - N/A   Clear
6:35 PM 45.9 °F - 28.0 °F 50% 30.12 in 10.0 mi Calm Calm - N/A   Clear
6:55 PM 46.0 °F - 26.8 °F 47% 30.13 in 10.0 mi Calm Calm - N/A   Clear
7:15 PM 41.4 °F - 28.6 °F 60% 30.14 in 10.0 mi Calm Calm - N/A   Clear
7:35 PM 38.8 °F - 29.3 °F 69% 30.14 in 10.0 mi Calm Calm - N/A   Clear
7:55 PM 39.6 °F - 28.0 °F 63% 30.15 in 10.0 mi Calm Calm - N/A   Clear
8:15 PM 39.4 °F - 28.4 °F 65% 30.15 in 10.0 mi Calm Calm - N/A   Clear
8:35 PM 38.8 °F - 27.9 °F 65% 30.16 in 10.0 mi Calm Calm - N/A   Clear
8:55 PM 39.2 °F - 27.5 °F 63% 30.16 in 10.0 mi Calm Calm - N/A   Clear
9:15 PM 39.2 °F - 27.9 °F 64% 30.17 in 10.0 mi Calm Calm - N/A   Clear
9:35 PM 36.0 °F - 27.5 °F 71% 30.18 in 10.0 mi Calm Calm - N/A   Clear
9:55 PM 36.1 °F - 27.5 °F 71% 30.18 in 10.0 mi Calm Calm - N/A   Clear
10:15 PM 33.3 °F - 28.0 °F 81% 30.19 in 10.0 mi Calm Calm - N/A   Clear
10:35 PM 35.2 °F - 28.0 °F 75% 30.18 in 10.0 mi Calm Calm - N/A   Clear
10:55 PM 32.2 °F - 27.5 °F 83% 30.19 in 10.0 mi Calm Calm - N/A   Clear
11:15 PM 32.4 °F - 28.2 °F 85% 30.19 in 10.0 mi Calm Calm - N/A   Clear
11:35 PM 33.1 °F - 27.0 °F 78% 30.19 in 10.0 mi Calm Calm - N/A   Clear
11:55 PM 31.5 °F - 27.5 °F 85% 30.19 in 10.0 mi Calm Calm - N/A   Clear